[[{"header":{"parameterUnit":"m.s-1","parameterCategory":1,"la1":30.2991,"la2":30.254,"lo1":-89.0895,"lo2":-89.0444,"dy":0.0017,"dx":0.0017,"nx":28,"ny":28,"refTime":"2024-04-11T21:00:00:Z","depth":0,"parameterNumber":2,"parameterNumberName":"U-component_of_WINDS"},"data":[0,0,0,0,0,0,0,0,0,0,0,0,0,0,0,0,0,0,0,0,0,0,0,0,0,0,0,0,0,0,0,0,0,0,0,0,0,0,0,0,0,0,0,0,0,0,0,0,0,0,0,0,0,0,0,0,0,0,1.1253,1.1254,0,1.1282,1.1283,1.1283,1.1277,1.1276,1.1276,1.1275,1.1303,1.1305,1.1306,0,0,0,0,0,0,0,0,0,0,0,0,0,1.1192,1.1193,1.1253,1.1254,1.1254,1.1282,1.1283,1.1283,1.1277,1.1276,1.1276,1.1275,1.1303,1.1304,1.1306,0,0,0,0,0,0,0,0,0,0,0,0,0,1.1219,1.1193,1.1253,1.1254,1.1255,1.1282,1.1283,1.1283,1.1277,1.1276,1.1275,1.1275,1.1302,1.1304,1.1306,1.1334,0,0,1.1312,1.1313,0,0,0,0,0,0,0,0,1.1218,1.1222,1.1254,1.1254,1.1255,1.1275,1.1271,1.13,1.1277,1.1269,1.1275,1.1274,1.1295,1.1297,1.1304,1.1335,1.1336,1.1312,1.1313,1.1314,1.1314,0,0,0,0,0,0,0,1.1216,1.122,1.1265,1.1254,1.1255,1.1253,1.1256,1.1277,1.1286,1.1269,1.1269,1.1273,1.1295,1.1302,1.1305,1.1337,1.1312,1.1314,1.1315,1.1315,1.1393,1.1394,0,0,0,0,0,0,1.1214,1.1219,1.1264,1.1266,1.1234,1.1255,1.1258,1.1269,1.1285,1.1287,1.1273,1.1272,1.13,1.1303,1.1306,1.134,1.1314,1.1316,1.1317,1.1392,1.1394,1.1395,0,0,0,0,0,0,1.1212,1.1218,1.1263,1.1242,1.1248,1.1257,1.1269,1.127,1.1278,1.1288,1.129,1.128,1.1299,1.1303,1.1327,1.1341,1.1317,1.1318,1.1391,1.1393,1.1394,1.1408,0,0,0,0,0,0,1.1211,1.1217,1.1228,1.1243,1.1249,1.1284,1.127,1.1272,1.1282,1.1281,1.1295,1.1296,1.1299,1.1325,1.1329,1.1343,1.132,1.139,1.1392,1.1394,1.1407,1.141,1.1413,0,0,0,0,0,1.1209,1.123,1.1229,1.1234,1.1262,1.1285,1.1288,1.1291,1.1283,1.1294,1.13,1.1296,1.1339,1.1327,1.1332,1.1347,1.1389,1.1391,1.1393,1.1405,1.1409,1.1413,0,0,0,0,0,0,1.1216,1.1232,1.123,1.1257,1.127,1.1284,1.1297,1.1295,1.131,1.1308,1.1311,1.1314,1.1339,1.1345,1.1332,1.1375,1.1363,1.1366,1.137,1.1374,1.1377,1.1375,1.1321,0,0,0,0,0,1.1221,1.1238,1.1251,1.1273,1.128,1.1288,1.1297,1.1299,1.1311,1.1316,1.1325,1.1337,1.1354,1.1364,1.138,1.1408,1.1411,1.1421,1.1424,1.1426,1.1429,1.1446,1.145,1.1402,1.1402,1.1402,0,0,1.123,1.1242,1.1252,1.1275,1.1285,1.1303,1.1292,1.1311,1.1324,1.1319,1.1343,1.135,1.1364,1.139,1.1402,1.1396,1.1443,1.1429,1.1431,1.1432,1.1448,1.1453,1.1457,1.1403,1.1403,1.1403,0,0,1.1258,1.1268,1.1288,1.1299,1.1314,1.132,1.1325,1.1339,1.1344,1.1368,1.1365,1.1381,1.1409,1.1419,1.1428,1.1462,1.1458,1.1467,1.1483,1.1499,1.1503,1.1506,1.1519,1.1523,1.1469,1.1469,1.1469,0,1.1268,1.1295,1.1299,1.1318,1.1329,1.1327,1.1348,1.1358,1.1377,1.1385,1.1378,1.1414,1.1423,1.1453,1.1461,1.1468,1.1474,1.1465,1.1502,1.1506,1.1509,1.1521,1.1525,1.147,1.147,1.147,1.147,0,1.1307,1.1325,1.134,1.136,1.1373,1.1393,1.14,1.1412,1.1413,1.1419,1.1444,1.1456,1.1474,1.1481,1.1482,1.1511,1.1507,1.1501,1.1489,1.1514,1.1526,1.153,1.1472,1.1471,1.1471,1.1471,0,0,1.1337,1.1361,1.1367,1.1377,1.1395,1.1409,1.143,1.1449,1.1459,1.1473,1.1491,1.1515,1.1511,1.1521,1.1523,1.1537,1.1564,1.1529,1.153,1.1536,1.1598,1.1603,1.1608,1.1562,1.1563,1.1564,1.1597,0,1.1367,1.1403,1.1409,1.1441,1.1459,1.1458,1.1476,1.1489,1.1496,1.1512,1.1519,1.1537,1.1529,1.1536,1.155,1.1557,1.1576,1.1555,1.1578,1.1579,1.1575,1.1614,1.1618,1.1649,1.1602,1.1602,1.1603,0,1.1405,1.1422,1.1456,1.1473,1.1481,1.1497,1.1516,1.1531,1.1546,1.155,1.1563,1.1564,1.1585,1.1573,1.1603,1.1588,1.1598,1.1604,1.1605,1.1607,1.1592,1.1617,1.1659,1.1664,1.161,1.1609,1.1609,0,1.1425,1.1456,1.1481,1.1489,1.1509,1.1521,1.153,1.1545,1.1556,1.1572,1.158,1.1599,1.1608,1.1623,1.1629,1.1619,1.1659,1.1646,1.1663,1.1663,1.1671,1.167,1.1715,1.1677,1.1677,1.1677,1.1677,0,1.1456,1.1478,1.149,1.1505,1.153,1.1536,1.1559,1.1568,1.1581,1.1598,1.1599,1.1615,1.1622,1.1639,1.1643,1.1668,1.1673,1.1676,1.1677,1.1676,1.1676,1.1683,1.1681,1.1678,1.1678,1.1678,1.1678,0,1.1482,1.1491,1.1519,1.1536,1.1542,1.1559,1.1574,1.1589,1.1596,1.1618,1.1624,1.1635,1.1655,1.1663,1.1687,1.1691,1.172,1.1719,1.1715,1.1715,1.1731,1.173,1.1782,1.1789,1.1747,1.1747,1.1747,0,1.1501,1.1518,1.1538,1.155,1.156,1.1579,1.1592,1.1599,1.1612,1.1632,1.1644,1.1665,1.1682,1.1715,1.1725,1.1744,1.1744,1.1761,1.1747,1.1746,1.1745,1.1743,1.1745,1.1763,1.1764,1.1764,1.1765,0,1.1535,1.154,1.1558,1.1578,1.1593,1.1609,1.1625,1.1635,1.1644,1.1659,1.168,1.1694,1.172,1.1741,1.1761,1.177,1.1769,1.1769,1.1774,1.1773,1.177,1.1772,1.1722,1.1768,1.1767,1.1767,1.1767,1.1767,1.1559,1.1574,1.1591,1.1612,1.1625,1.164,1.1655,1.1665,1.1684,1.1706,1.1709,1.1733,1.1749,1.1776,1.1786,1.1805,1.18,1.1807,1.1809,1.181,1.1812,1.1768,1.1808,1.1808,1.1808,1.1808,1.1808,0,1.1593,1.1604,1.1623,1.1646,1.1663,1.1662,1.1679,1.1693,1.1714,1.173,1.1747,1.1772,1.1793,1.1806,1.1827,1.1839,1.1839,1.1844,1.1843,1.1846,1.1815,1.1808,1.1844,1.1844,1.1844,1.1844,1.1844,1.1844,1.1612,1.1638,1.1645,1.1678,1.1689,1.1713,1.1723,1.1737,1.175,1.1779,1.1796,1.1805,1.182,1.1842,1.1861,1.1865,1.1872,1.1878,1.1881,1.1851,1.1848,1.1844,1.1838,1.1879,1.1879,1.191,1.191,1.1911]},{"header":{"parameterUnit":"m.s-1","parameterCategory":1,"la1":30.2991,"la2":30.254,"lo1":-89.0895,"lo2":-89.0444,"dy":0.0017,"dx":0.0017,"nx":28,"ny":28,"refTime":"2024-04-11T21:00:00:Z","depth":0,"parameterNumber":3,"parameterNumberName":"V-component_of_WINDS"},"data":[0,0,0,0,0,0,0,0,0,0,0,0,0,0,0,0,0,0,0,0,0,0,0,0,0,0,0,0,0,0,0,0,0,0,0,0,0,0,0,0,0,0,0,0,0,0,0,0,0,0,0,0,0,0,0,0,0,0,-2.0692,-2.0693,0,-2.0792,-2.0794,-2.0795,-2.0792,-2.0791,-2.079,-2.0788,-2.0891,-2.0895,-2.0899,0,0,0,0,0,0,0,0,0,0,0,0,0,-2.0498,-2.0501,-2.0691,-2.0693,-2.0694,-2.0792,-2.0794,-2.0795,-2.0793,-2.0791,-2.0789,-2.0788,-2.089,-2.0895,-2.09,0,0,0,0,0,0,0,0,0,0,0,0,0,-2.0588,-2.0502,-2.0691,-2.0705,-2.0707,-2.0792,-2.0794,-2.0795,-2.0793,-2.0791,-2.0789,-2.0787,-2.0889,-2.0894,-2.09,-2.0979,0,0,-2.0919,-2.0921,0,0,0,0,0,0,0,0,-2.0583,-2.0596,-2.0701,-2.0704,-2.0706,-2.0778,-2.0763,-2.0857,-2.0793,-2.076,-2.0788,-2.0786,-2.0855,-2.0864,-2.0887,-2.0984,-2.0988,-2.0919,-2.0923,-2.0926,-2.0927,0,0,0,0,0,0,0,-2.0577,-2.0591,-2.0731,-2.0703,-2.0706,-2.0706,-2.0716,-2.0781,-2.0818,-2.0763,-2.0763,-2.0775,-2.0856,-2.0881,-2.089,-2.099,-2.0919,-2.0925,-2.0928,-2.0931,-2.1156,-2.1159,0,0,0,0,0,0,-2.0568,-2.0586,-2.0728,-2.0734,-2.0639,-2.0711,-2.0723,-2.0757,-2.0817,-2.0825,-2.0777,-2.0774,-2.0872,-2.0883,-2.0893,-2.099,-2.0926,-2.0931,-2.0935,-2.1154,-2.1157,-2.116,0,0,0,0,0,0,-2.0564,-2.058,-2.0724,-2.066,-2.0679,-2.0717,-2.0755,-2.076,-2.0785,-2.0828,-2.0834,-2.0796,-2.0871,-2.0885,-2.0958,-2.0993,-2.0934,-2.0939,-2.1151,-2.1155,-2.1158,-2.1183,0,0,0,0,0,0,-2.0558,-2.0579,-2.0609,-2.0661,-2.0682,-2.0787,-2.0757,-2.0763,-2.0796,-2.0794,-2.0847,-2.0854,-2.087,-2.0949,-2.0964,-2.1001,-2.0944,-2.1148,-2.1153,-2.1157,-2.1179,-2.1187,-2.1194,0,0,0,0,0,-2.0551,-2.0612,-2.061,-2.0628,-2.072,-2.0789,-2.0801,-2.0818,-2.0798,-2.0829,-2.0857,-2.0852,-2.0987,-2.0956,-2.0973,-2.1012,-2.1146,-2.1152,-2.1157,-2.1176,-2.1185,-2.1193,0,0,0,0,0,0,-2.0563,-2.0619,-2.0618,-2.0697,-2.0738,-2.0788,-2.0827,-2.0828,-2.0875,-2.0872,-2.0892,-2.0904,-2.0977,-2.1002,-2.0967,-2.1092,-2.1064,-2.1073,-2.1073,-2.1082,-2.1089,-2.1082,-2.0949,0,0,0,0,0,-2.0574,-2.0625,-2.0672,-2.0737,-2.0758,-2.0789,-2.082,-2.083,-2.0873,-2.089,-2.0923,-2.0965,-2.1017,-2.1051,-2.1101,-2.1183,-2.1195,-2.1218,-2.1225,-2.1231,-2.1239,-2.1284,-2.1295,-2.1177,-2.1177,-2.1177,0,0,-2.0599,-2.0636,-2.0667,-2.074,-2.0773,-2.0826,-2.0804,-2.086,-2.0899,-2.0899,-2.097,-2.0996,-2.1044,-2.1122,-2.1158,-2.1145,-2.1274,-2.1238,-2.1242,-2.1247,-2.1291,-2.1302,-2.1312,-2.1181,-2.118,-2.1179,0,0,-2.0671,-2.0704,-2.0762,-2.0796,-2.0847,-2.0867,-2.0881,-2.0932,-2.0949,-2.1021,-2.1022,-2.1069,-2.1158,-2.1193,-2.1222,-2.1308,-2.1307,-2.1324,-2.1362,-2.1406,-2.1416,-2.1424,-2.1456,-2.1466,-2.1332,-2.1332,-2.1332,0,-2.0695,-2.0775,-2.0792,-2.085,-2.0882,-2.0884,-2.0944,-2.0976,-2.104,-2.1063,-2.1048,-2.116,-2.1193,-2.1279,-2.13,-2.1324,-2.1341,-2.1318,-2.1413,-2.1422,-2.143,-2.146,-2.1471,-2.1334,-2.1333,-2.1333,-2.1333,0,-2.0802,-2.0857,-2.0899,-2.0961,-2.0998,-2.1056,-2.1083,-2.1119,-2.1126,-2.1148,-2.1222,-2.1261,-2.132,-2.1341,-2.1348,-2.1429,-2.142,-2.1409,-2.1381,-2.1442,-2.1471,-2.1483,-2.1336,-2.1335,-2.1335,-2.1334,0,0,-2.0884,-2.0956,-2.0971,-2.1,-2.1056,-2.1099,-2.1157,-2.1215,-2.1245,-2.129,-2.134,-2.1415,-2.1406,-2.1439,-2.1451,-2.149,-2.1556,-2.1474,-2.1475,-2.1488,-2.1648,-2.1657,-2.167,-2.1556,-2.1558,-2.156,-2.1645,0,-2.0962,-2.1066,-2.1084,-2.1175,-2.1226,-2.123,-2.1281,-2.1321,-2.1344,-2.1391,-2.1416,-2.147,-2.1453,-2.1473,-2.1512,-2.154,-2.1589,-2.1534,-2.1603,-2.1605,-2.159,-2.1685,-2.1693,-2.1771,-2.1656,-2.1658,-2.1659,0,-2.1067,-2.1115,-2.1211,-2.1261,-2.1283,-2.1329,-2.1384,-2.1429,-2.1475,-2.1489,-2.1526,-2.1534,-2.1595,-2.1565,-2.165,-2.1612,-2.1641,-2.166,-2.1663,-2.167,-2.1636,-2.1695,-2.1797,-2.1809,-2.1677,-2.1675,-2.1674,0,-2.1118,-2.1206,-2.1275,-2.1299,-2.1359,-2.1392,-2.1418,-2.1462,-2.1496,-2.1544,-2.1566,-2.162,-2.165,-2.1692,-2.1714,-2.169,-2.1798,-2.1769,-2.1812,-2.1811,-2.1834,-2.1833,-2.1943,-2.1853,-2.1852,-2.1852,-2.1852,0,-2.1203,-2.1262,-2.1298,-2.1341,-2.1407,-2.1428,-2.1493,-2.1519,-2.1558,-2.1606,-2.1613,-2.1657,-2.1683,-2.1732,-2.175,-2.1818,-2.1831,-2.1845,-2.1849,-2.1844,-2.1843,-2.1864,-2.1859,-2.1855,-2.1855,-2.1854,-2.1854,0,-2.1271,-2.1297,-2.1373,-2.1424,-2.1438,-2.1485,-2.1529,-2.1571,-2.1593,-2.1654,-2.167,-2.1706,-2.1764,-2.179,-2.1861,-2.1873,-2.1951,-2.1951,-2.1936,-2.1937,-2.1978,-2.1974,-2.2106,-2.2125,-2.2021,-2.2022,-2.2023,0,-2.1323,-2.1369,-2.1425,-2.1458,-2.1485,-2.1538,-2.1572,-2.1595,-2.1631,-2.1687,-2.1722,-2.1781,-2.1828,-2.1921,-2.1954,-2.2009,-2.201,-2.2053,-2.2018,-2.2013,-2.2011,-2.2009,-2.2014,-2.2059,-2.206,-2.2061,-2.2061,0,-2.1415,-2.1426,-2.1476,-2.1531,-2.1572,-2.1616,-2.1659,-2.1686,-2.1715,-2.1755,-2.1814,-2.1851,-2.1925,-2.1983,-2.204,-2.2068,-2.207,-2.2072,-2.2085,-2.2081,-2.207,-2.2077,-2.1953,-2.2069,-2.2068,-2.2067,-2.2067,-2.2067,-2.1477,-2.1518,-2.1564,-2.162,-2.1655,-2.1695,-2.1737,-2.1765,-2.1815,-2.1877,-2.1887,-2.1951,-2.1997,-2.2074,-2.2104,-2.2154,-2.2144,-2.2162,-2.2167,-2.2171,-2.2174,-2.2062,-2.2165,-2.2164,-2.2164,-2.2164,-2.2164,0,-2.1569,-2.1599,-2.165,-2.1711,-2.1754,-2.1753,-2.1801,-2.1838,-2.1893,-2.1936,-2.1983,-2.2052,-2.2109,-2.2146,-2.2203,-2.2237,-2.2239,-2.2251,-2.2249,-2.2255,-2.218,-2.2163,-2.2248,-2.2248,-2.2248,-2.2248,-2.2248,-2.2248,-2.1622,-2.1692,-2.1708,-2.1795,-2.1825,-2.1888,-2.1915,-2.1953,-2.1987,-2.2064,-2.2111,-2.2135,-2.2176,-2.2237,-2.2289,-2.2298,-2.2319,-2.2332,-2.2341,-2.2269,-2.2261,-2.2252,-2.2237,-2.2336,-2.2336,-2.2413,-2.2414,-2.2414]}]]